Regional Weather Roundup
Issued by NWS Sioux Falls, SD

Home | Current Version | Previous Version | Graphics & Text | Print | Product List | Glossary Off
Versions: 1 2 3 4 5 6 7 8 9 10 11 12 13 14 15 16 17 18 19 20 21 22 23 24 25 26 27 28 29 30 31 32 33 34 35 36 37 38 39 40 41 42 43 44 45 46 47 48 49 50

000
ASUS43 KFSD 170310
RWRFSD

WEATHER ROUNDUP FOR SE SOUTH DAKOTA/SW MINNESOTA/NW IOWA
NATIONAL WEATHER SERVICE SIOUX FALLS SD
900 PM CST MON JAN 16 2017

NOTE: "FAIR" INDICATES FEW OR NO CLOUDS BELOW 12,000 FEET WITH NO
SIGNIFICANT WEATHER AND OR OBSTRUCTIONS TO VISIBILITY.


SDZ038>040-050-052>070-170400-
SOUTHEAST SOUTH DAKOTA

CITY           SKY/WX    TMP DP  RH WIND       PRES   REMARKS
BROOKINGS      CLOUDY    15  13  91 N3        29.97F
CHAMBERLAIN    CLOUDY    15  12  88 W5        30.07S WCI   7
HURON          CLOUDY     6   3  87 NW6       30.05S WCI  -4
MADISON          N/A     18  18 100 NW6         N/A  WCI   9
MITCHELL       CLOUDY    14  10  84 NW8       30.06S WCI   3
SIOUX FALLS    CLOUDY    31  28  89 N9        29.97F WCI  23
WINNER         FAIR      20  13  74 NW14      30.06F WCI   7
YANKTON        CLOUDY    25  19  80 CALM      30.01R
$$

MNZ071-072-080-081-089-090-097-098-170400-
SOUTHWEST MINNESOTA

CITY           SKY/WX    TMP DP  RH WIND       PRES   REMARKS
FAIRMONT       MIX PCPN  30  30 100 N9        29.94F FOG     WCI  22
JACKSON        DRIZZLE   30  30 100 N7        29.95S WCI  23
LUVERNE        CLOUDY    30  28  93 VRB5      29.97S FOG     WCI  25
MARSHALL       MIX PCPN  24  23  96 NW9       30.01S VSB 1   WCI  14
MONTEVIDEO     FOG       25  25 100 N5        30.03F VSB 1   WCI  19
PIPESTONE      FOG       28  27  93 N8        29.96S VSB 3/4 WCI  20
REDWOOD FALLS  CLOUDY    31  28  89 N8        29.99S WCI  23
TRACY          FOG       27  26  99 NW10      29.99S VSB 3/4 WCI  17
WINDOM         MIX PCPN  30  30 100 N8        29.95F WCI  23
WORTHINGTON    MIX PCPN  30  29  96 N12       29.95S FOG     WCI  20
$$

IAZ001>003-012>014-020>022-031-032-NEZ013-014-SDZ071-170400-
NORTHWEST IOWA

CITY           SKY/WX    TMP DP  RH WIND       PRES   REMARKS
CHEROKEE       MIX PCPN  32  32 100 CALM      29.95S
DENISON        LGT RAIN  32  32 100 N7        29.91S WCI  26
ESTHERVILLE    CLOUDY    31  31 100 N12       29.93F WCI  22
LE MARS        CLOUDY    32  32 100 N7        29.97F FOG     WCI  26
ORANGE CITY    LGT RAIN  32  32 100 N3        29.95F
SHELDON        LGT RAIN  32  32 100 N8        29.93F WCI  25
SIOUX CITY     LGT RAIN  34  32  92 NW12      29.97S FOG     WCI  25
SPENCER        FRZ RAIN  32  31  96 N9        29.94F WCI  24
STORM LAKE     LGT RAIN  32  32 100 N9        29.92F WCI  24
$$

ABBREVIATIONS USED IN REMARKS
   TC - TEMPERATURE IN CELSIUS
  WCI - WIND CHILL INDEX
   HX - HEAT INDEX
  VSB - VISIBILITY





USA.gov is the U.S. government's official web portal to all federal, state and local government web resources and services.